Location: Homewood
(41.1836°S, 175.9581°E)
Time: 02:46:05
(UTC+00:00)

NOSS 3-3 (A) - Pass Details

Date: 18 April 2024
Orbit: 753 x 1458 km, 63.4° (Epoch: 20 May)

Event Time Altitude Azimuth Distance (km) Brightness Sun altitude
Exits shadow 16:41:48 35° 346° (NNW) 1,326 4.5 -24.9°
Drops below altitude 10° 16:45:02 10° 10° (N) 2,350 6.0 -24.3°
Sets 16:47:23 0° 15° (NNE) 3,231 6.9 -23.8°
